TimeEDT,TemperatureF,Dew PointF,Humidity,Sea Level PressureIn,VisibilityMPH,Wind Direction,Wind SpeedMPH,Gust SpeedMPH,PrecipitationIn,Events,Conditions,WindDirDegrees,DateUTC
12:51 AM,73.0,68.0,84,29.84,9.0,East,4.6,-,N/A,,Overcast,80,2013-09-01 04:51:00
1:51 AM,73.0,66.9,81,29.84,10.0,ENE,4.6,-,N/A,,Overcast,70,2013-09-01 05:51:00
2:51 AM,73.0,66.9,81,29.83,9.0,NE,3.5,-,N/A,,Overcast,50,2013-09-01 06:51:00
3:51 AM,73.0,66.0,79,29.81,10.0,NE,5.8,-,N/A,,Overcast,40,2013-09-01 07:51:00
4:51 AM,73.0,66.0,79,29.81,10.0,East,4.6,-,N/A,,Mostly Cloudy,80,2013-09-01 08:51:00
5:51 AM,72.0,66.0,81,29.81,10.0,East,4.6,-,N/A,,Mostly Cloudy,80,2013-09-01 09:51:00
6:02 AM,73.0,66.0,79,29.83,10.0,East,4.6,-,N/A,,Mostly Cloudy,100,2013-09-01 10:02:00
6:51 AM,71.1,66.0,84,29.81,10.0,ESE,4.6,-,N/A,,Mostly Cloudy,110,2013-09-01 10:51:00
7:51 AM,72.0,66.9,84,29.82,9.0,SSE,6.9,-,N/A,,Overcast,160,2013-09-01 11:51:00
8:21 AM,72.0,68.0,87,29.83,7.0,SSE,6.9,-,N/A,,Overcast,160,2013-09-01 12:21:00
8:51 AM,73.9,69.1,85,29.83,5.0,SSE,5.8,-,N/A,,Haze,160,2013-09-01 12:51:00
9:51 AM,73.9,69.1,85,29.82,4.0,South,5.8,-,N/A,,Haze,180,2013-09-01 13:51:00
10:08 AM,75.0,69.1,82,29.84,5.0,SSW,9.2,-,N/A,,Haze,210,2013-09-01 14:08:00
10:51 AM,77.0,69.1,76,29.81,9.0,South,6.9,-,N/A,,Overcast,180,2013-09-01 14:51:00
11:51 AM,77.0,69.1,76,29.82,10.0,SW,6.9,-,N/A,,Overcast,230,2013-09-01 15:51:00
12:36 PM,79.0,69.1,72,29.82,10.0,WSW,5.8,-,N/A,,Mostly Cloudy,240,2013-09-01 16:36:00
12:51 PM,80.1,69.1,69,29.81,10.0,WSW,8.1,-,N/A,,Overcast,250,2013-09-01 16:51:00
1:51 PM,80.1,68.0,67,29.81,10.0,WSW,8.1,-,N/A,,Mostly Cloudy,250,2013-09-01 17:51:00
2:51 PM,82.9,69.1,63,29.79,10.0,SW,5.8,-,N/A,,Overcast,220,2013-09-01 18:51:00
3:51 PM,80.1,71.1,74,29.78,9.0,North,10.4,-,0.00,Rain,Light Rain,350,2013-09-01 19:51:00
4:51 PM,80.1,72.0,76,29.77,8.0,East,6.9,-,0.00,,Overcast,80,2013-09-01 20:51:00
5:51 PM,78.1,70.0,76,29.77,10.0,NNW,12.7,17.3,N/A,,Overcast,340,2013-09-01 21:51:00
5:56 PM,77.0,70.0,79,29.78,10.0,NNW,11.5,-,N/A,,Overcast,330,2013-09-01 21:56:00
6:30 PM,75.9,70.0,82,29.79,9.0,North,8.1,-,N/A,,Mostly Cloudy,10,2013-09-01 22:30:00
6:51 PM,77.0,70.0,79,29.78,10.0,North,3.5,-,N/A,,Mostly Cloudy,10,2013-09-01 22:51:00
7:04 PM,77.0,70.0,79,29.79,10.0,North,6.9,-,N/A,,Mostly Cloudy,10,2013-09-01 23:04:00
7:51 PM,75.9,69.1,79,29.77,10.0,NNE,4.6,-,N/A,,Scattered Clouds,20,2013-09-01 23:51:00
8:45 PM,77.0,69.8,78,29.80,10.0,Calm,Calm,-,N/A,,Mostly Cloudy,0,2013-09-02 00:45:00
8:51 PM,75.9,70.0,82,29.79,10.0,Calm,Calm,-,N/A,,Mostly Cloudy,0,2013-09-02 00:51:00
9:02 PM,75.9,70.0,82,29.80,10.0,Calm,Calm,-,N/A,,Mostly Cloudy,0,2013-09-02 01:02:00
9:19 PM,75.0,71.1,87,29.82,9.0,South,9.2,-,N/A,,Mostly Cloudy,170,2013-09-02 01:19:00
9:41 PM,75.0,71.1,87,29.81,7.0,South,3.5,-,N/A,,Mostly Cloudy,180,2013-09-02 01:41:00
9:51 PM,73.9,70.0,87,29.80,7.0,Calm,Calm,-,N/A,,Mostly Cloudy,0,2013-09-02 01:51:00
10:51 PM,73.0,70.0,90,29.80,8.0,SSE,6.9,-,N/A,,Scattered Clouds,160,2013-09-02 02:51:00
11:51 PM,73.0,70.0,90,29.79,8.0,South,6.9,-,N/A,,Mostly Cloudy,170,2013-09-02 03:51:00